Regional Weather Roundup
Issued by NWS

Home | Current Version | Previous Version | Graphics & Text | Print | Product List | Glossary On
Versions: 1 2 3 4 5 6 7 8 9 10 11 12 13 14 15 16 17 18 19 20 21 22 23 24 25 26 27 28 29 30 31 32 33 34 35 36 37 38 39 40 41 42 43 44 45 46 47 48 49 50
000
ASUS43 KBIS 211459
RWRND

NORTH DAKOTA REGIONAL WEATHER ROUNDUP
NATIONAL WEATHER SERVICE BISMARCK ND
1000 AM CDT SUN SEP 21 2014

NOTE: "FAIR" INDICATES FEW OR NO CLOUDS BELOW 12,000 FEET WITH NO
SIGNIFICANT WEATHER AND/OR OBSTRUCTIONS TO VISIBILITY.


NDZ001>003-009>011-017-211600-
NORTHWEST NORTH DAKOTA

CITY           SKY/WX    TMP DP  RH WIND       PRES   REMARKS
WILLISTON      SUNNY     50  39  66 S5        30.30R
MINOT          SUNNY     57  44  62 NW8       30.26R
$$

NDZ018>021-031>035-040>046-211600-
SOUTHWEST NORTH DAKOTA

CITY           SKY/WX    TMP DP  RH WIND       PRES   REMARKS
BISMARCK       SUNNY     57  43  59 NW5       30.29R
GARRISON         N/A     57  45  64 NW8       30.27R
HETTINGER ARPT SUNNY     54  42  64 NW3       30.33R
$$

NDZ004>008-012>016-024-026-027-054-211600-
NORTHEAST NORTH DAKOTA

CITY           SKY/WX    TMP DP  RH WIND       PRES   REMARKS
GRAND FORKS    CLOUDY    53  51  93 NW13      30.20R
GRND FRKS AFB  PTSUNNY   57  54  88 N13       30.21R
DEVILS LAKE    MOSUNNY   55  45  67 NW10      30.22R
$$

NDZ022-023-025-028>030-036>039-047>053-211600-
SOUTHEAST NORTH DAKOTA

CITY           SKY/WX    TMP DP  RH WIND       PRES   REMARKS
FARGO          CLOUDY    55  50  83 N13       30.20R
$$




USA.gov is the U.S. government's official web portal to all federal, state and local government web resources and services.